Regional Weather Roundup
Issued by NWS

Home | Current Version | Previous Version | Text Only | Print | Product List | Glossary On
Versions: 1 2 3 4 5 6 7 8 9 10 11 12 13 14 15 16 17 18 19 20 21 22 23 24 25 26 27 28 29 30 31 32 33 34 35 36 37 38 39 40 41 42 43 44 45 46 47 48 49 50
000
ASUS46 KSTO 181015
RWRCA

NORTHERN AND CENTRAL CA REGIONAL WEATHER ROUNDUP
NATIONAL WEATHER SERVICE SACRAMENTO CA
300 AM PDT WED OCT 18 2017

NOTE: FAIR INDICATES FEW OR NO CLOUDS BELOW 12,000 FEET WITH NO
SIGNIFICANT WEATHER AND/OR OBSTRUCTIONS TO VISIBILITY.

CAZ001-003-181100-
NORTHWEST AREA

CITY           SKY/WX    TMP DP  RH WIND       PRES   REMARKS
CRESCENT CITY  FOG       46  46 100 CALM      30.11R VSB 1/4
UKIAH          CLEAR     42  37  82 CALM      30.06F
$$

CAZ006-505>513-181100-
BAY AREA

CITY           SKY/WX    TMP DP  RH WIND       PRES   REMARKS
SANTA ROSA     FOG       43  43 100 CALM      30.05S VSB 1/4
SAN RAFAEL     N/A       49  MM  MM MISG
NAPA           CLEAR     46  43  89 CALM      30.05F
CONCORD        CLEAR     51  45  79 CALM      30.04F
OAKLAND CITY   N/A      MM  MM  MM MISG
OAKLAND        PTCLDY    48  47  96 N3        30.06F
SAN FRAN CITY  N/A       51  MM  95 MISG
SAN FRAN ARPT  CLEAR     49  46  90 W7        30.05F
LIVERMORE      CLEAR     48  32  53 CALM      30.05S
HAYWARD        CLEAR     50  45  83 E3        30.05F
REDWOOD CITY   N/A       48  MM  83 MISG
MOFFETT ARPT   MOCLDY    54  50  87 W5        30.07S
SAN JOSE ARPT  PTCLDY    54  51  90 W5        30.06S
$$
CAZ034-037-514>518-181100-
CENTRAL COAST

CITY           SKY/WX    TMP DP  RH WIND       PRES   REMARKS
SALINAS        FOG       52  52 100 W7        30.06S VSB 1/4
MONTEREY       CLOUDY    52  51  97 CALM      30.06F FOG
SAN LUIS OBISP CLOUDY    64  53  67 NW8       29.99R
SANTA MARIA    MOCLDY    62  57  83 NW7       29.98S
$$
CAZ015-016-181100-
NORTHERN SACRAMENTO VALLEY

CITY           SKY/WX    TMP DP  RH WIND       PRES   REMARKS
REDDING        CLEAR     47  33  58 N3        30.05S
RED BLUFF      CLEAR     50  30  46 NW7       30.05F
OROVILLE       CLEAR     54  37  52 CALM      30.04S
$$
CAZ016>018-181100-
SOUTHERN SACRAMENTO VALLEY

CITY           SKY/WX    TMP DP  RH WIND       PRES   REMARKS
AUBURN         CLEAR     59 N/A N/A E6        30.06F
BEALE AFB      CLEAR     48  33  57 CALM      30.00F
LINCOLN        FAIR      46  32  57 CALM      30.01S
MARYSVILLE     CLEAR     46  39  76 NW3       30.03S
SAC INTL ARPT  CLEAR     49  42  77 W3        30.02S
MATHER AIRPORT CLOUDY    48  34  57 SE5       30.02
DOWNTOWN SAC   N/A       53  MM  MM MISG
SAC EXEC ARPT  CLEAR     47  41  80 CALM      30.02S
VACAVILLE      CLEAR     48  35  60 CALM      30.03F
TRAVIS AFB     CLEAR     47  41  81 W6        30.00F
$$
CAZ019>021-181100-
SAN JOAQUIN VALLEY

CITY           SKY/WX    TMP DP  RH WIND       PRES   REMARKS
STOCKTON       CLEAR     50  38  63 NE3       30.02S
MODESTO        CLEAR     53  46  77 CALM      30.01S
MERCED         PTCLDY    48  41  76 SE3       30.01F
LEMOORE        CLOUDY    65  37  35 NW5       30.02F
FRESNO         MOCLDY    59  49  69 NE3       30.02F HAZE
HANFORD        CLOUDY    63  46  54 CALM      30.03R
PORTERVILLE    CLOUDY    62  46  55 SE3       30.03F
BAKERSFIELD    MOCLDY    66  45  46 SE6       30.03S
$$
CAZ011-012-071-181100-
NORTHERN MOUNTAINS

CITY           SKY/WX    TMP DP  RH WIND       PRES   REMARKS
YREKA          CLEAR     39  23  52 CALM      30.15R
ALTURAS        PTCLDY    30  18  60 CALM      30.20F
$$
CAZ011-012-071-181100-
SIERRA NEVADA MTNS

CITY           SKY/WX    TMP DP  RH WIND       PRES   REMARKS
BLUE CANYON    CLEAR     59  -6   7 E3        30.22F
TRUCKEE        CLEAR     27  14  59 CALM      30.29S
TAHOE VLY ARPT CLEAR     27  19  72 S5        30.29R WCI  22
MAMMOTH LAKES  FAIR      36  25  65 N3        30.31F
$$



USA.gov is the U.S. government's official web portal to all federal, state and local government web resources and services.